Regional Weather Roundup
Issued by NWS

Home | Current Version | Previous Version | Graphics & Text | Print | Product List | Glossary On
Versions: 1 2 3 4 5 6 7 8 9 10 11 12 13 14 15 16 17 18 19 20 21 22 23 24 25 26 27 28 29 30 31 32 33 34 35 36 37 38 39 40 41 42 43 44 45 46 47 48 49 50
000
ASUS45 KTFX 010304
RWRMT
MONTANA HOURLY WEATHER ROUNDUP
NATIONAL WEATHER SERVICE GREAT FALLS MT
904 PM MDT FRI OCT 31 2014

NOTE: "FAIR" INDICATES FEW OR NO CLOUDS BELOW 12000 FEET WITH NO
SIGNIFICANT WEATHER AND/OR OBSTRUCTIONS TO VISIBILITY.

* THESE STATIONS ARE NOT UNDER NWS QUALITY CONTROL. THEY DO NOT
   REPORT WEATHER SUCH AS PRECIPITATION OR FOG.

MTZ001>007-043-010400-
WEST OF THE DIVIDE
CITY           SKY/WX    TMP DP  RH WIND       PRES   REMARKS
KALISPELL      CLOUDY    43  43 100 CALM      29.77S
MISSOULA       PTCLDY    46  39  77 W3        29.76S
BUTTE          PTCLDY    52  27  38 VRB6      29.81F
MULLAN PASS    FOG       39  37  93 CALM      29.82F VSB 2
* ESSEX        N/A       39  38  96 SE1        N/A
* LINCOLN      N/A       40  33  76 N2         N/A
* LOOKOUT PASS N/A       44  43  96 N8         N/A
* POLSON       N/A       41  41 100 SE1        N/A
* RONAN APT    CLEAR     39  37  93 N/A        N/A
* SEELEY LAKE  N/A       39  36  89 N2         N/A
* THOMP F APT  PTCLDY    46  24  42 NE3        N/A
* YAAK HILL    N/A       46  42  86 N/A        N/A
$$

MTZ008-052>055-010400-
SOUTHWEST MONTANA
CITY           SKY/WX    TMP DP  RH WIND       PRES   REMARKS
DILLON         CLEAR     54  25  33 W7        29.79F
W YELLOWSTONE  MOCLDY    41  25  53 S3        29.94S
* THREE FORKS  MOCLDY    55  37  51 S6         N/A
* BOULDER HILL N/A       50  25  38 S5         N/A
* MONIDA PASS  N/A       45  25  45 SE9G14     N/A
* RAYNOLDS PAS N/A       49  34  56 SE4        N/A
* WHITEHALL    N/A       48  30  50 N8         N/A
* WISE RIVER   N/A       46  28  50 SE3        N/A
$$

MTZ009>010-012-014-046-048-049-054-010400-
EAST SLOPES AND CENTRAL MONTANA
CITY           SKY/WX    TMP DP  RH WIND       PRES   REMARKS
CUT BANK       PTCLDY    45  34  65 S5        29.73R
GREAT FALLS    PTCLDY    48  34  59 SW8       29.72S
HELENA         CLEAR     46  36  68 SW6       29.76S
MALMSTROM AFB  PTCLDY    50  34  54 SW6       29.73S
* EAST GLACIER N/A       54  30  40 W18G24     N/A
* MONARCH      N/A       49  22  35 S9         N/A
* SAINT MARY   N/A       55  31  40 S7G16      N/A
* SWEET GRASS  N/A       56  29  36 SW19       N/A
$$

MTZ011-013-016-021-035-040-045-047-050-051-010400-
NORTH CENTRAL MONTANA
CITY           SKY/WX    TMP DP  RH WIND       PRES   REMARKS
HAVRE          PTCLDY    37  34  89 SW6       29.71S WCI  32
LEWISTOWN      CLOUDY    55  32  42 SE8       29.76S
* N BAR RANCH  FAIR      52  32  47 NW6       29.80S
* CHESTER      N/A       37  30  76 N5         N/A   WCI  33
* DENTON       N/A       44  38  80 NE2        N/A
* JUDITH GAP   N/A       45  32  60 S4         N/A
* LOMA         N/A       42  36  79 NE11       N/A
$$

MTZ017>020-022>027-061-062-010400-
NORTHEAST MONTANA
CITY           SKY/WX    TMP DP  RH WIND       PRES   REMARKS
GLASGOW        CLEAR     41  30  65 E14       29.78S
GLENDIVE       CLEAR     45  28  51 S12       29.87F
JORDAN         CLEAR     43  32  65 E5        29.76F
SIDNEY         PTCLDY    43  21  42 SE13      29.91F
WOLF POINT     PTCLDY    37  30  76 NE9       29.82F WCI  30
* BEAVER HILL  N/A       39  24  55 E22G30     N/A   WCI  29
* CIRCLE       N/A       43  34  71 SE1        N/A
* LINDSAY DVD  N/A       39  30  70 E13        N/A   WCI  31
* NAVAJO       N/A       40  27  60 SE17G24    N/A   WCI  31
* PLENTYWOOD A N/A       37 N/A N/A N/A        N/A
$$

MTZ028>042-056>058-010400-
SOUTHCENTRAL AND SOUTHEAST MONTANA
CITY           SKY/WX    TMP DP  RH WIND       PRES   REMARKS
BAKER          CLEAR     43  27  53 SE18      29.87F
BILLINGS       CLOUDY    52  32  47 CALM      29.78F
LIVINGSTON     MOCLDY    55  30  39 E7        29.79F
MILES CITY     CLEAR     46  32  58 SE16      29.79F
* LAUREL APT   CLOUDY    52  28  40 N/A        N/A
* ROUNDUP APT  CLOUDY    52  28  40 N/A        N/A
* ALZADA       N/A       42  31  65 NE7        N/A
* LAME DEER    N/A       51  31  46 S11        N/A
* REED POINT   N/A       43  32  65 E1         N/A
* ROSCOE HILL  N/A       56  23  28 S6G12      N/A
$$

REGIONAL REPORTS...DAKOTAS
CITY           SKY/WX    TMP DP  RH WIND       PRES   REMARKS
WILLISTON      PTCLDY    41  18  39 SE13G22   29.93F
DICKINSON      CLEAR     36  14  40 SE24G32   29.94F WCI  24
BEACH          N/A       37  19  48 SE20G25   29.89F WCI  27
CROSBY         CLEAR     37  18  46 S16G25    29.92F WCI  28
TIOGA          CLEAR     36  18  48 S18G24    29.99F WCI  26
BISMARCK       PTCLDY    34  16  48 S22       30.14F WCI  22
GRAND FORKS    CLOUDY    34  19  54 S12       30.34F WCI  25
FARGO          PTCLDY    34  19  54 S15       30.38S WCI  24
BUFFALO SD     PTCLDY    41  21  45 SE14      29.85F
RAPID CITY     PTCLDY    39  28  65 S13       29.99F WCI  31
$$

REGIONAL REPORTS...WYOMING/IDAHO/WASHINGTON
CITY           SKY/WX    TMP DP  RH WIND       PRES   REMARKS
GILLETTE       MOCLDY    48  30  50 SE18G25   29.87F
SHERIDAN       PTCLDY    34  27  76 CALM      29.83S
CODY           MOCLDY    48  27  44 S9        29.86S
YELLOWSTONE LA PTCLDY    28  25  89 NW3       30.02F
SALMON         CLEAR     43  34  71 SE5       29.76R
MULLAN PASS    FOG       39  37  93 CALM      29.82S VSB 2
SAND POINT     CLOUDY    46  46 100 W3        29.79S
SPOKANE        LGT RAIN  50  46  86 S7        29.79S

$$




USA.gov is the U.S. government's official web portal to all federal, state and local government web resources and services.